Location: Bastogne Gables
(35.1554°N, 78.9900°W)
Time: 03:10:16
(UTC+00:00)

Cosmos 44 Rocket - Pass Details

Date: 29 October 2020
Orbit: 642 x 748 km, 65.1° (Epoch: 26 November)

Event Time Altitude Azimuth Distance (km) Brightness Sun altitude
Rises 23:04:19 0° 192° (SSW) 2,954 6.9 -8.9°
Reaches altitude 10° 23:06:39 10° 186° (S) 2,059 6.0 -9.3°
Maximum altitude 23:11:05 45° 113° (ESE) 912 3.6 -10.2°
Drops below altitude 10° 23:15:41 10° 42° (NE) 2,130 5.3 -11.1°
Enters shadow 23:16:14 - 40° (NE) 2,341 5.6 -11.3°
